Tracking 19717 objects as of 25-Jun-2019
HD Live streaming from Space Station
objects crossing your sky now

COSMOS 1394

Track COSMOS 1394 now!
10-day predictions
COSMOS 1394 is classified as:


NORAD ID: 13381
Int'l Code: 1982-073G
Perigee: 1,481.1 km
Apogee: 1,502.8 km
Inclination: 74.0 °
Period: 115.6 minutes
Semi major axis: 7862 km
RCS: 0.7023 m2 (medium)
Launch date: July 21, 1982
Source: Commonwealth of Independent States (former USSR) (CIS)
Launch site: PLESETSK MISSILE AND SPACE COMPLEX (PKMTR)
aabbcc
Your satellite tracking list
Your tracking list is empty




NASA's NSSDC Master Catalog

Two Line Element Set (TLE):
1 13381U 82073G   19175.44690264 -.00000017  00000-0 -82154-5 0  9999
2 13381  74.0146 270.2052 0013817 354.3441  77.7480 12.45151453678692
Source of the keplerian elements: AFSPC